Location: Alberta Star Party
(51.6612°N, 112.9089°W)
Time: 03:02:31
(UTC-07:00)

Amateur Radio Satellites - All Passes

Search period start: 18 January 2017 02:32
Search period end: 19 January 2017 02:32
Location: Alberta Star Party, 51.6612°N, 112.9089°W

Satellite Date Start Highest point End Downlink Frequencies (MHz)
Time Altitude Azimuth
Cosmos 2491 18 Jan 02:35:45 02:44:14 61° 92° (E) 02:52:47 435.465 / 435.565
BEESAT 2 18 Jan 02:36:50 02:40:45 49° 235° (SW) 02:44:40 435.950
ITAMSAT 1 18 Jan 02:42:21 02:46:04 20° 89° (E) 02:49:48 435.822/435.867
Cosmos 2504 18 Jan 02:47:16 02:54:55 87° 263° (W) 03:02:08 435.465 / 435.565
AIST 1 18 Jan 02:48:12 02:51:24 21° 274° (W) 02:54:36
MOZHAYETS 4 18 Jan 02:49:20 02:53:51 63° 71° (ENE) 02:58:25
ISS 18 Jan 03:04:34 03:07:50 88° 360° (N) 03:11:06 145.825
PCSat 18 Jan 03:04:35 03:09:57 60° 313° (NW) 03:15:21 145.827
AUBIESAT-1 18 Jan 03:08:00 03:12:15 73° 67° (ENE) 03:16:15 437.475
STARS 18 Jan 03:14:52 03:18:21 24° 61° (ENE) 03:21:50 437.465
CUBESAT XI-V 18 Jan 03:28:06 03:32:12 30° 63° (ENE) 03:36:20 437.345
ITUPSAT 1 18 Jan 03:31:44 03:35:24 22° 269° (W) 03:39:05 437.325
Gurwin Techsat 1B 18 Jan 03:36:18 03:41:22 45° 295° (WNW) 03:46:24 435.225
YUBILEINY 18 Jan 03:39:11 03:46:39 32° 279° (W) 03:54:04 435.215
CUSAT 1 18 Jan 03:41:49 03:46:49 50° 92° (E) 03:53:16 437.405
Oscar 19 18 Jan 03:44:52 03:49:00 25° 302° (WNW) 03:53:06 437.125/150
KKS-1 18 Jan 03:49:05 03:53:33 87° 71° (ENE) 03:58:02 437.445
AO-7 18 Jan 03:57:19 04:05:27 51° 101° (E) 04:13:30 29.400- 29.500
M-CUBED/EXP-1 PRIME 18 Jan 04:03:52 04:07:42 29° 258° (WSW) 04:11:20 437.505
DANDE 18 Jan 04:06:59 04:10:05 21° 82° (E) 04:13:51 436.750
AIST 2 18 Jan 04:09:51 04:14:01 51° 41° (NE) 04:18:10 435.215
BEESAT 18 Jan 04:11:56 04:12:30 10° 276° (W) 04:13:03 436.000
ITAMSAT 1 18 Jan 04:20:55 04:26:07 74° 289° (WNW) 04:31:18 435.822/435.867
RS-15 18 Jan 04:26:04 04:37:46 47° 349° (NNW) 04:49:36 29.354- 29.394
MOZHAYETS 4 18 Jan 04:28:11 04:31:27 19° 270° (W) 04:34:44
GONETS M04 18 Jan 04:32:36 04:36:28 13° 37° (NE) 04:40:20
Cosmos 2491 18 Jan 04:33:33 04:41:35 40° 296° (WNW) 04:49:42 435.465 / 435.565
BRITE-PL 18 Jan 04:35:02 04:38:54 21° 88° (E) 04:42:33 437.365/2234.400
ISS 18 Jan 04:41:04 04:44:14 50° 202° (SSW) 04:47:24 145.825
Cosmos 2504 18 Jan 04:42:00 04:47:07 20° 285° (WNW) 04:52:05 435.465 / 435.565
AUBIESAT-1 18 Jan 04:44:30 04:47:01 15° 263° (W) 04:49:28 437.475
HORYU 2 18 Jan 04:46:45 04:48:12 11° 86° (E) 04:49:38 437.375
STARS 18 Jan 04:50:10 04:54:27 51° 260° (W) 04:58:44 437.465
PCSat 18 Jan 04:50:17 04:54:27 22° 337° (NNW) 04:58:38 145.827
GOMX 1 18 Jan 04:54:11 04:56:01 12° 83° (E) 04:57:49 467.674
CUBESAT XI-V 18 Jan 05:05:00 05:09:27 42° 263° (W) 05:13:58 437.345
Cosmos 2499 18 Jan 05:15:18 05:20:09 18° 51° (NE) 05:24:52 435.465 / 435.565
Gurwin Techsat 1B 18 Jan 05:19:13 05:20:04 10° 316° (NW) 05:20:57 435.225
CUSAT 1 18 Jan 05:24:07 05:29:05 35° 299° (WNW) 05:35:18 437.405
KKS-1 18 Jan 05:28:35 05:30:45 13° 273° (W) 05:32:56 437.445
STRAND 1 18 Jan 05:46:03 05:50:25 30° 60° (ENE) 05:54:48 437.568
DOVE 4 18 Jan 05:46:14 05:48:42 15° 87° (E) 05:51:06 437.250
DANDE 18 Jan 05:48:19 05:52:11 48° 292° (WNW) 05:57:24 436.750
AIST 2 18 Jan 05:48:40 05:52:19 28° 241° (WSW) 05:55:57 435.215
AO-7 18 Jan 05:50:18 05:58:17 51° 303° (WNW) 06:06:14 29.400- 29.500
Cubesat XI-IV 18 Jan 05:54:35 05:58:38 21° 90° (E) 06:02:39 437.490
ITAMSAT 1 18 Jan 06:01:45 06:04:46 16° 309° (NW) 06:07:48 435.822/435.867
NOAA 15 18 Jan 06:12:44 06:17:26 31° 94° (E) 06:22:06 137.62
BRITE-PL 18 Jan 06:12:48 06:17:55 62° 289° (WNW) 06:22:36 437.365/2234.400
ISS 18 Jan 06:18:26 06:20:10 14° 220° (SW) 06:21:54 145.825
HORYU 2 18 Jan 06:21:00 06:25:30 81° 106° (ESE) 06:29:57 437.375
HO-68 18 Jan 06:25:19 06:27:42 12° 80° (E) 06:30:03 435.675
GONETS M04 18 Jan 06:28:05 06:36:24 43° 66° (ENE) 06:44:42
GOMX 1 18 Jan 06:30:18 06:34:59 89° 115° (ESE) 06:39:19 467.674
PCSat 18 Jan 06:36:35 06:39:53 16° 3° (N) 06:43:11 145.827
Cosmos 2491 18 Jan 06:38:30 06:41:42 12° 325° (NW) 06:44:54 435.465 / 435.565
RS-15 18 Jan 06:41:23 06:53:27 52° 22° (NNE) 07:05:18 29.354- 29.394
CUTE-I 18 Jan 06:51:30 06:56:47 59° 102° (ESE) 07:02:03 437.470
LilacSat-2 18 Jan 06:52:58 06:56:50 76° 103° (ESE) 07:00:43 437.200
O/OREOS (USA 219) 18 Jan 06:53:19 06:57:10 29° 106° (ESE) 07:01:01 437.305
CANX-2 18 Jan 06:54:33 06:56:35 13° 86° (E) 06:58:37 2200.000
Cosmos 2499 18 Jan 07:07:33 07:14:52 73° 77° (ENE) 07:21:54 435.465 / 435.565
SEEDS 18 Jan 07:11:37 07:13:04 11° 85° (E) 07:14:29 437.485
CUSAT 1 18 Jan 07:12:57 07:13:37 10° 326° (NW) 07:14:17 437.405
NOAA 18 18 Jan 07:17:09 07:22:32 54° 101° (E) 07:27:51 137.9125
DOVE 4 18 Jan 07:22:41 07:26:59 69° 287° (WNW) 07:31:06 437.250
STRAND 1 18 Jan 07:24:27 07:29:23 50° 260° (W) 07:34:23 437.568
CINEMA 3 18 Jan 07:32:44 07:36:40 40° 98° (E) 07:40:38 145.822/145.860
Cubesat XI-IV 18 Jan 07:33:54 07:39:13 70° 290° (WNW) 07:44:32 437.490
AAUSAT CUBESAT 2 18 Jan 07:36:28 07:37:21 11° 85° (E) 07:38:12 437.432
AO-7 18 Jan 07:43:57 07:49:16 19° 327° (NNW) 07:54:35 29.400- 29.500
UWE-3 18 Jan 07:44:19 07:45:06 10° 85° (E) 07:45:53 435.000/436.395/437.385
NOAA 15 18 Jan 07:52:18 07:57:26 49° 294° (WNW) 08:02:32 137.62
BRITE-PL 18 Jan 07:53:04 07:55:19 13° 311° (NW) 07:57:29 437.365/2234.400
UNISAT 6 18 Jan 07:55:38 07:56:51 11° 53° (NE) 07:58:05 437.425
HORYU 2 18 Jan 07:58:41 08:01:29 17° 304° (NW) 08:04:18 437.375
CUTE 1.7 + AOD 2 18 Jan 08:00:04 08:04:15 45° 98° (E) 08:08:22 437.475
ZACube-1 18 Jan 08:08:12 08:09:44 12° 86° (E) 08:11:16 437.345
TIGRISAT 18 Jan 08:08:47 08:10:53 13° 55° (NE) 08:12:58 435.000
GOMX 1 18 Jan 08:09:40 08:12:21 15° 306° (NW) 08:14:56 467.674
HO-68 18 Jan 08:10:02 08:17:07 56° 101° (ESE) 08:24:07 435.675
PRISM 18 Jan 08:14:57 08:18:52 41° 67° (ENE) 08:22:48 437.425
PCSat 18 Jan 08:20:39 08:25:11 26° 29° (NNE) 08:29:42 145.827
ANTELSAT 18 Jan 08:22:23 08:25:17 18° 58° (ENE) 08:28:12 437.575/2403.000
GONETS M04 18 Jan 08:25:02 08:33:36 58° 269° (W) 08:42:10
LilacSat-2 18 Jan 08:28:34 08:30:38 14° 302° (WNW) 08:32:41 437.200
CANX-2 18 Jan 08:28:43 08:33:03 84° 284° (WNW) 08:37:21 2200.000
CUTE-I 18 Jan 08:32:05 08:36:31 28° 301° (WNW) 08:40:58 437.470
O/OREOS (USA 219) 18 Jan 08:32:09 08:36:25 43° 306° (NW) 08:40:43 437.305
CUBEBUG 2 18 Jan 08:44:16 08:48:29 55° 100° (E) 08:52:46 437.445
SEEDS 18 Jan 08:45:07 08:49:26 87° 106° (ESE) 08:53:42 437.485
JAS-2 18 Jan 08:45:29 08:49:07 18° 48° (NE) 08:53:00 435.910
Oscar 11 18 Jan 08:47:53 08:51:24 23° 92° (E) 08:54:54 145.826/435.025
RS-15 18 Jan 08:54:52 09:07:19 86° 232° (SW) 09:19:23 29.354- 29.394
COMPASS 1 18 Jan 08:55:23 08:59:39 76° 103° (ESE) 09:03:51 437.405
NOAA 18 18 Jan 08:58:14 09:02:58 31° 301° (WNW) 09:07:40 137.9125
Cosmos 2499 18 Jan 09:01:33 09:07:16 26° 280° (W) 09:12:50 435.465 / 435.565
DOVE 4 18 Jan 09:02:42 09:03:51 11° 308° (NW) 09:04:58 437.250
AAUSAT CUBESAT 2 18 Jan 09:09:17 09:13:31 83° 101° (ESE) 09:17:42 437.432
CINEMA 3 18 Jan 09:10:14 09:13:41 26° 296° (WNW) 09:17:09 145.822/145.860
DELFI C3 18 Jan 09:14:17 09:16:40 15° 89° (E) 09:19:02 145.870
Cubesat XI-IV 18 Jan 09:15:26 09:18:25 15° 310° (NW) 09:21:24 437.490
SO-50 18 Jan 09:15:35 09:20:09 51° 125° (SE) 09:24:39 436.795
UWE-3 18 Jan 09:17:57 09:22:16 78° 103° (ESE) 09:26:41 435.000/436.395/437.385
FUNcube-1 18 Jan 09:20:44 09:24:58 49° 100° (E) 09:29:15 145.935
UNISAT 6 18 Jan 09:28:33 09:32:47 68° 73° (ENE) 09:37:03 437.425
NOAA 15 18 Jan 09:34:27 09:36:03 11° 315° (NW) 09:37:39 137.62
CUTE 1.7 + AOD 2 18 Jan 09:36:22 09:39:52 25° 297° (WNW) 09:43:21 437.475
AO-7 18 Jan 09:37:44 09:38:47 10° 354° (N) 09:39:50 29.400- 29.500
ZACube-1 18 Jan 09:42:20 09:46:41 85° 104° (ESE) 09:51:07 437.345
TIGRISAT 18 Jan 09:42:41 09:46:56 86° 75° (ENE) 09:51:13 435.000
PRISM 18 Jan 09:50:50 09:54:18 25° 266° (W) 09:57:47 437.425
QB50P1 18 Jan 09:52:03 09:54:48 17° 58° (ENE) 09:57:33 145.935-145.965
POLYITAN 1 18 Jan 09:55:15 09:58:07 18° 59° (ENE) 10:01:00 437.675
QB50P2 18 Jan 09:56:13 09:59:14 20° 60° (ENE) 10:02:17 145.880/145.840
ANTELSAT 18 Jan 09:57:21 10:01:35 66° 258° (WSW) 10:05:51 437.575/2403.000
HO-68 18 Jan 09:58:05 10:04:40 41° 303° (WNW) 10:11:15 435.675
PCSat 18 Jan 10:03:54 10:09:23 82° 52° (NE) 10:14:49 145.827
CANX-2 18 Jan 10:06:07 10:08:14 14° 305° (NW) 10:10:23 2200.000
HUMSAT D 18 Jan 10:15:05 10:19:02 35° 96° (E) 10:22:59 437.325/437.525
O/OREOS (USA 219) 18 Jan 10:15:41 10:17:04 11° 329° (NNW) 10:18:27 437.305
POPSAT HIP 1 18 Jan 10:17:44 10:21:16 27° 63° (ENE) 10:24:49 437.405
CUBEBUG 2 18 Jan 10:21:37 10:24:48 21° 299° (WNW) 10:28:03 437.445
SEEDS 18 Jan 10:22:10 10:24:31 15° 304° (WNW) 10:26:53 437.485
Oscar 11 18 Jan 10:23:34 10:27:46 47° 291° (WNW) 10:31:57 145.826/435.025
GONETS M04 18 Jan 10:24:23 10:28:24 14° 293° (WNW) 10:32:25
JAS-2 18 Jan 10:27:52 10:33:14 80° 72° (ENE) 10:39:13 435.910
DUCHIFAT 1 18 Jan 10:31:25 10:35:07 31° 65° (ENE) 10:38:50 145.980
COMPASS 1 18 Jan 10:32:05 10:34:40 16° 302° (WNW) 10:37:15 437.405
NANOSAT C BR1 18 Jan 10:35:29 10:39:20 37° 67° (ENE) 10:43:12 145.865
Cosmos 2491 18 Jan 10:43:38 10:47:19 13° 37° (NE) 10:51:00 435.465 / 435.565
AAUSAT CUBESAT 2 18 Jan 10:46:02 10:48:25 15° 303° (WNW) 10:50:48 437.432
DELFI C3 18 Jan 10:47:55 10:51:54 64° 288° (WNW) 10:55:51 145.870
UWE-3 18 Jan 10:55:35 10:58:14 16° 302° (WNW) 11:00:56 435.000/436.395/437.385
SO-50 18 Jan 10:56:26 11:00:48 37° 326° (NW) 11:05:06 436.795
FUNcube-1 18 Jan 10:57:32 11:00:57 23° 298° (WNW) 11:04:26 145.935
UNISAT 6 18 Jan 11:07:25 11:10:01 16° 272° (W) 11:12:36 437.425
RS-15 18 Jan 11:08:13 11:18:14 31° 257° (WSW) 11:28:00 29.354- 29.394
BUGSAT 1 18 Jan 11:15:49 11:19:29 34° 66° (ENE) 11:23:09 437.445
ZACube-1 18 Jan 11:19:55 11:22:25 15° 303° (WNW) 11:24:56 437.345
BY70-1 18 Jan 11:21:07 11:24:28 44° 99° (E) 11:27:39 436.1900
TIGRISAT 18 Jan 11:22:31 11:24:17 12° 274° (W) 11:26:02 435.000
AO-7 18 Jan 11:24:15 11:28:00 14° 22° (NNE) 11:31:46 29.400- 29.500
QB50P1 18 Jan 11:25:55 11:30:06 70° 256° (WSW) 11:34:19 145.935-145.965
POLYITAN 1 18 Jan 11:29:21 11:33:31 64° 258° (WSW) 11:37:41 437.675
QB50P2 18 Jan 11:30:32 11:34:41 59° 259° (W) 11:38:51 145.880/145.840
SPROUT 18 Jan 11:38:09 11:39:41 12° 86° (E) 11:41:12 437.525
CUBEBUG 1 18 Jan 11:42:38 11:46:17 25° 93° (E) 11:49:53 437.445
Gurwin Techsat 1B 18 Jan 11:45:25 11:48:55 18° 53° (NE) 11:52:26 435.225
HO-68 18 Jan 11:47:31 11:50:35 13° 326° (NW) 11:53:40 435.675
PCSat 18 Jan 11:48:12 11:52:11 21° 252° (WSW) 11:56:09 145.827
Oscar 19 18 Jan 11:48:54 11:53:20 29° 60° (ENE) 11:57:46 437.125/150
HUMSAT D 18 Jan 11:50:51 11:54:35 30° 295° (WNW) 11:58:20 437.325/437.525
AISAT 18 Jan 11:52:54 11:56:21 22° 92° (E) 11:59:47 437.250
POPSAT HIP 1 18 Jan 11:52:59 11:56:55 39° 262° (W) 12:00:53 437.405
ESTCUBE 1 18 Jan 12:04:23 12:08:56 64° 102° (ESE) 12:13:26 437.505/2401.250
DUCHIFAT 1 18 Jan 12:07:01 12:10:47 32° 264° (W) 12:14:34 145.980
50 SAT 18 Jan 12:09:07 12:11:52 20° 93° (E) 12:14:35 437.505
NANOSAT C BR1 18 Jan 12:11:32 12:15:08 28° 265° (W) 12:18:46 145.865
JAS-2 18 Jan 12:15:32 12:19:16 19° 275° (W) 12:23:14 435.910
VELOX 1 18 Jan 12:25:59 12:30:11 41° 98° (E) 12:34:21 145.980
CUSAT 1 18 Jan 12:26:28 12:31:57 20° 50° (NE) 12:37:29 437.405
ITAMSAT 1 18 Jan 12:30:20 12:31:50 11° 46° (NE) 12:33:20 435.822/435.867
Cosmos 2491 18 Jan 12:39:03 12:47:18 42° 65° (ENE) 12:55:31 435.465 / 435.565
SO-50 18 Jan 12:39:18 12:42:28 18° 349° (N) 12:45:37 436.795
BUGSAT 1 18 Jan 12:51:22 12:54:54 28° 265° (W) 12:58:27 437.445
BY70-1 18 Jan 12:52:09 12:54:32 18° 298° (WNW) 12:56:52 436.1900
DANDE 18 Jan 12:54:06 12:57:09 13° 46° (NE) 13:00:24 436.750
YUBILEINY 18 Jan 12:57:12 13:02:24 17° 70° (ENE) 13:07:36 435.215
DX 1 18 Jan 13:05:46 13:10:02 51° 101° (E) 13:14:15 434.975-435.025
UKube-1 18 Jan 13:09:33 13:13:40 42° 99° (E) 13:17:46 .
AO-7 18 Jan 13:11:08 13:18:20 34° 48° (NE) 13:25:32 29.400- 29.500
SPROUT 18 Jan 13:12:00 13:16:16 89° 99° (E) 13:20:32 437.525
TISAT 1 18 Jan 13:13:20 13:16:06 17° 90° (E) 13:18:52 437.305
CUBEBUG 1 18 Jan 13:18:37 13:22:44 42° 292° (WNW) 13:26:48 437.445
Gurwin Techsat 1B 18 Jan 13:22:50 13:28:09 85° 74° (ENE) 13:33:31 435.225
Oscar 19 18 Jan 13:27:19 13:32:24 53° 260° (W) 13:37:32 437.125/150
AISAT 18 Jan 13:28:49 13:33:06 50° 291° (WNW) 13:37:20 437.250
50 SAT 18 Jan 13:41:53 13:45:13 37° 292° (WNW) 13:48:31 437.505
Cosmos 2504 18 Jan 13:41:57 13:46:57 17° 73° (ENE) 13:51:47 435.465 / 435.565
ESTCUBE 1 18 Jan 13:41:59 13:45:20 21° 301° (WNW) 13:48:40 437.505/2401.250
AIST 1 18 Jan 13:45:31 13:48:51 22° 87° (E) 13:52:10
VELOX 1 18 Jan 14:02:44 14:06:30 28° 298° (WNW) 14:10:14 145.980
ITAMSAT 1 18 Jan 14:05:13 14:10:11 50° 67° (ENE) 14:15:12 435.822/435.867
CUSAT 1 18 Jan 14:07:39 14:15:29 63° 72° (ENE) 14:23:13 437.405
BRITE-PL 18 Jan 14:16:16 14:17:45 11° 47° (NE) 14:19:13 437.365/2234.400
SO-50 18 Jan 14:21:18 14:24:33 19° 14° (NNE) 14:27:47 436.795
BEESAT 18 Jan 14:24:11 14:27:48 21° 91° (E) 14:31:24 436.000
SWISSCUBE 18 Jan 14:25:25 14:29:17 23° 92° (E) 14:33:07 437.505
DANDE 18 Jan 14:34:54 14:41:42 43° 67° (ENE) 14:49:28 436.750
Cosmos 2491 18 Jan 14:36:00 14:44:32 58° 269° (W) 14:53:03 435.465 / 435.565
MOZHAYETS 4 18 Jan 14:41:34 14:42:21 10° 84° (E) 14:43:07
DX 1 18 Jan 14:42:31 14:45:57 23° 300° (WNW) 14:49:22 434.975-435.025
UKube-1 18 Jan 14:45:55 14:49:34 27° 298° (WNW) 14:53:10 .
TISAT 1 18 Jan 14:48:01 14:52:08 60° 289° (WNW) 14:56:14 437.305
YUBILEINY 18 Jan 14:48:46 14:57:29 68° 94° (E) 15:06:16 435.215
SPROUT 18 Jan 14:49:18 14:51:36 14° 304° (NW) 14:53:52 437.525
AO-85 18 Jan 14:59:00 15:03:20 41° 123° (ESE) 15:07:24 145.980
AO-7 18 Jan 15:02:01 15:10:25 82° 251° (WSW) 15:18:52 29.400- 29.500
Gurwin Techsat 1B 18 Jan 15:05:23 15:08:49 17° 273° (W) 15:12:16 435.225
O/OREOS (USA 219) 18 Jan 15:18:13 15:21:59 25° 46° (NE) 15:25:45 437.305
AIST 1 18 Jan 15:21:55 15:26:09 48° 286° (WNW) 15:30:23
ITUPSAT 1 18 Jan 15:25:00 15:29:49 66° 103° (ESE) 15:34:36 437.325
Cosmos 2504 18 Jan 15:30:22 15:38:56 69° 94° (E) 15:46:58 435.465 / 435.565
KKS-1 18 Jan 15:36:42 15:38:07 11° 86° (E) 15:39:30 437.445
ITAMSAT 1 18 Jan 15:45:28 15:49:54 29° 266° (W) 15:54:23 435.822/435.867
Cubesat XI-IV 18 Jan 15:45:28 15:47:47 13° 47° (NE) 15:50:05 437.490
HORYU 2 18 Jan 15:48:53 15:52:16 22° 59° (ENE) 15:55:40 437.375
BRITE-PL 18 Jan 15:49:34 15:54:58 45° 67° (ENE) 16:00:17 437.365/2234.400
CUSAT 1 18 Jan 15:50:01 15:57:09 39° 272° (W) 16:04:11 437.405
NOAA 15 18 Jan 16:00:55 16:04:17 17° 52° (NE) 16:07:39 137.62
BEESAT 18 Jan 16:01:15 16:05:59 62° 291° (WNW) 16:10:43 436.000
SO-50 18 Jan 16:01:44 16:06:07 44° 37° (NE) 16:10:26 436.795
SWISSCUBE 18 Jan 16:02:42 16:07:24 55° 291° (WNW) 16:12:04 437.505
GOMX 1 18 Jan 16:05:38 16:10:12 29° 63° (ENE) 16:14:36 467.674
LilacSat-2 18 Jan 16:08:56 16:09:53 11° 55° (NE) 16:10:50 437.200
MOZHAYETS 4 18 Jan 16:15:42 16:20:23 71° 104° (ESE) 16:25:01
AUBIESAT-1 18 Jan 16:16:28 16:18:46 17° 98° (E) 16:21:00 437.475
DANDE 18 Jan 16:17:34 16:24:40 57° 265° (W) 16:32:43 436.750
STARS 18 Jan 16:34:30 16:37:43 20° 91° (E) 16:40:54 437.465
Cosmos 2491 18 Jan 16:35:21 16:39:22 14° 293° (WNW) 16:43:25 435.465 / 435.565
AO-85 18 Jan 16:39:33 16:43:48 39° 322° (NW) 16:47:47 145.980
CUTE-I 18 Jan 16:39:59 16:44:31 30° 60° (ENE) 16:49:04 437.470
YUBILEINY 18 Jan 16:47:00 16:54:59 37° 298° (WNW) 17:03:02 435.215
DOVE 4 18 Jan 16:55:42 17:00:04 32° 65° (ENE) 17:04:15 437.250
CUBESAT XI-V 18 Jan 16:55:49 17:00:07 34° 95° (E) 17:04:21 437.345
O/OREOS (USA 219) 18 Jan 16:57:18 17:01:43 56° 247° (WSW) 17:06:07 437.305
AO-7 18 Jan 16:58:19 17:04:29 22° 272° (W) 17:10:41 29.400- 29.500
HO-68 18 Jan 16:59:19 17:04:23 21° 45° (NE) 17:09:28 435.675
ITUPSAT 1 18 Jan 17:03:35 17:07:15 22° 302° (WNW) 17:10:53 437.325
CINEMA 3 18 Jan 17:05:50 17:07:14 11° 54° (NE) 17:08:36 145.822/145.860
NOAA 18 18 Jan 17:09:25 17:14:15 32° 60° (ENE) 17:19:04 137.9125
KKS-1 18 Jan 17:10:57 17:15:25 82° 105° (ESE) 17:19:51 437.445
M-CUBED/EXP-1 PRIME 18 Jan 17:11:30 17:15:02 87° 114° (ESE) 17:18:20 437.505
Cubesat XI-IV 18 Jan 17:21:37 17:26:49 57° 68° (ENE) 17:32:02 437.490
HORYU 2 18 Jan 17:24:10 17:28:30 56° 258° (WSW) 17:32:52 437.375
Cosmos 2504 18 Jan 17:25:15 17:32:55 35° 297° (WNW) 17:40:12 435.465 / 435.565
CUTE 1.7 + AOD 2 18 Jan 17:25:57 17:26:45 10° 52° (NE) 17:27:34 437.475
BRITE-PL 18 Jan 17:28:16 17:33:31 37° 266° (W) 17:38:43 437.365/2234.400
BEESAT 3 18 Jan 17:30:03 17:33:45 42° 123° (ESE) 17:37:31 437.485
NOAA 15 18 Jan 17:38:00 17:43:17 80° 72° (ENE) 17:48:39 137.62
LilacSat-2 18 Jan 17:39:45 17:43:30 81° 77° (ENE) 17:47:20 437.200
BEESAT 18 Jan 17:41:00 17:42:53 12° 310° (NW) 17:44:45 436.000
SO-50 18 Jan 17:42:22 17:46:34 38° 238° (WSW) 17:50:42 436.795
GOMX 1 18 Jan 17:42:47 17:48:04 53° 261° (W) 17:53:08 467.674
SWISSCUBE 18 Jan 17:42:53 17:44:12 11° 311° (NW) 17:45:31 437.505
AUBIESAT-1 18 Jan 17:50:09 17:53:29 42° 297° (WNW) 17:56:38 437.475
CANX-2 18 Jan 17:52:06 17:55:08 19° 60° (ENE) 17:58:13 2200.000
MOZHAYETS 4 18 Jan 17:53:46 17:57:04 20° 302° (WNW) 18:00:21
DANDE 18 Jan 18:02:31 18:06:12 14° 283° (WNW) 18:10:06 436.750
Cosmos 2499 18 Jan 18:03:58 18:06:13 11° 69° (ENE) 18:08:27 435.465 / 435.565
SEEDS 18 Jan 18:07:51 18:10:38 17° 58° (ENE) 18:13:25 437.485
STARS 18 Jan 18:10:07 18:14:25 57° 290° (WNW) 18:18:41 437.465
BEESAT 2 18 Jan 18:10:09 18:13:58 48° 125° (SE) 18:17:51 435.950
CUBEBUG 2 18 Jan 18:13:46 18:15:42 13° 56° (NE) 18:17:38 437.445
COMPASS 1 18 Jan 18:17:38 18:20:04 15° 57° (ENE) 18:22:30 437.405
CUTE-I 18 Jan 18:19:08 18:24:20 54° 260° (W) 18:29:33 437.470
AO-85 18 Jan 18:22:35 18:25:15 16° 345° (NNW) 18:27:49 145.980
AAUSAT CUBESAT 2 18 Jan 18:30:53 18:33:26 16° 58° (ENE) 18:35:59 437.432
DOVE 4 18 Jan 18:33:00 18:37:42 41° 263° (W) 18:42:11 437.250
CUBESAT XI-V 18 Jan 18:33:12 18:37:32 37° 294° (WNW) 18:41:49 437.345
CINEMA 3 18 Jan 18:39:17 18:43:40 71° 73° (ENE) 18:47:55 145.822/145.860
HO-68 18 Jan 18:43:51 18:51:00 70° 67° (ENE) 18:58:11 435.675
UWE-3 18 Jan 18:45:36 18:48:16 17° 59° (ENE) 18:50:57 435.000/436.395/437.385
M-CUBED/EXP-1 PRIME 18 Jan 18:47:38 18:48:56 12° 311° (NW) 18:50:12 437.505
FUNcube-1 18 Jan 18:48:37 18:49:56 11° 54° (NE) 18:51:15 145.935
KKS-1 18 Jan 18:48:40 18:51:25 16° 304° (NW) 18:54:11 437.445
NOAA 18 18 Jan 18:49:22 18:54:44 51° 259° (W) 19:00:06 137.9125
YUBILEINY 18 Jan 18:52:42 18:55:19 11° 327° (NNW) 18:57:56 435.215
CUTE 1.7 + AOD 2 18 Jan 18:57:33 19:01:45 63° 71° (ENE) 19:06:00 437.475
Cubesat XI-IV 18 Jan 19:02:50 19:07:14 26° 268° (W) 19:11:41 437.490
BEESAT 3 18 Jan 19:07:51 19:11:28 34° 324° (NW) 19:15:08 437.485
ZACube-1 18 Jan 19:08:46 19:11:34 18° 59° (ENE) 19:14:23 437.345
LilacSat-2 18 Jan 19:17:15 19:18:21 11° 273° (W) 19:19:29 437.200
NOAA 15 18 Jan 19:20:05 19:23:43 18° 272° (W) 19:27:23 137.62
CANX-2 18 Jan 19:26:24 19:30:36 61° 259° (W) 19:34:53 2200.000
STRAND 1 18 Jan 19:29:12 19:33:58 37° 97° (E) 19:38:43 437.568
GONETS M04 18 Jan 19:36:41 19:44:27 38° 84° (E) 19:52:16
SEEDS 18 Jan 19:41:38 19:45:51 70° 258° (WSW) 19:50:07 437.485
CUBEBUG 2 18 Jan 19:47:32 19:51:42 87° 76° (ENE) 19:55:53 437.445
Oscar 11 18 Jan 19:47:32 19:51:26 34° 66° (ENE) 19:55:23 145.826/435.025
BEESAT 2 18 Jan 19:48:19 19:51:55 32° 325° (NW) 19:55:34 435.950
Cosmos 2499 18 Jan 19:49:35 19:57:35 52° 91° (E) 20:05:02 435.465 / 435.565
COMPASS 1 18 Jan 19:50:51 19:55:03 82° 256° (WSW) 19:59:18 437.405
AIST 2 18 Jan 19:51:48 19:54:21 16° 113° (ESE) 19:56:56 435.215
AAUSAT CUBESAT 2 18 Jan 20:04:12 20:08:23 77° 258° (WSW) 20:12:36 437.432
DELFI C3 18 Jan 20:04:50 20:07:45 20° 61° (ENE) 20:10:41 145.870
AO-85 18 Jan 20:04:57 20:07:15 14° 10° (N) 20:09:30 145.980
CINEMA 3 18 Jan 20:18:39 20:21:16 15° 271° (W) 20:23:52 145.822/145.860
UWE-3 18 Jan 20:20:10 20:24:18 68° 258° (WSW) 20:28:27 435.000/436.395/437.385
FUNcube-1 18 Jan 20:21:19 20:25:26 73° 73° (ENE) 20:29:36 145.935
HO-68 18 Jan 20:33:09 20:39:19 30° 268° (W) 20:45:32 435.675
CUTE 1.7 + AOD 2 18 Jan 20:35:12 20:38:01 17° 271° (W) 20:40:51 437.475
ZACube-1 18 Jan 20:43:20 20:47:26 63° 258° (WSW) 20:51:36 437.345
BEESAT 3 18 Jan 20:47:59 20:50:11 14° 347° (NNW) 20:52:24 437.485
STRAND 1 18 Jan 21:08:26 21:13:11 39° 296° (WNW) 21:17:56 437.568
HUMSAT D 18 Jan 21:11:12 21:15:09 48° 69° (ENE) 21:19:10 437.325/437.525
Oscar 11 18 Jan 21:23:44 21:27:36 31° 265° (W) 21:31:30 145.826/435.025
PRISM 18 Jan 21:26:06 21:29:47 30° 96° (E) 21:33:25 437.425
CUBEBUG 2 18 Jan 21:27:31 21:28:59 12° 274° (W) 21:30:27 437.445
AIST 2 18 Jan 21:28:07 21:32:16 82° 312° (NW) 21:36:31 435.215
BEESAT 2 18 Jan 21:28:40 21:30:52 14° 348° (NNW) 21:33:05 435.950
TIGRISAT 18 Jan 21:30:03 21:31:58 13° 87° (E) 21:33:53 435.000
COMPASS 1 18 Jan 21:30:29 21:31:19 10° 275° (W) 21:32:10 437.405
GONETS M04 18 Jan 21:32:17 21:40:54 62° 287° (WNW) 21:49:38
JAS-2 18 Jan 21:33:09 21:34:36 11° 79° (ENE) 21:36:04 435.910
ESTCUBE 1 18 Jan 21:34:02 21:37:07 18° 57° (ENE) 21:40:12 437.505/2401.250
DELFI C3 18 Jan 21:38:18 21:42:14 53° 260° (W) 21:46:13 145.870
BY70-1 18 Jan 21:41:25 21:43:57 23° 65° (ENE) 21:46:39 436.1900
Cosmos 2499 18 Jan 21:43:02 21:50:53 44° 292° (WNW) 21:58:15 435.465 / 435.565
ANTELSAT 18 Jan 21:43:56 21:46:57 18° 90° (E) 21:50:01 437.575/2403.000
AO-85 18 Jan 21:45:12 21:48:51 32° 34° (NE) 21:52:24 145.980
VELOX 1 18 Jan 21:54:52 21:56:46 13° 53° (NE) 21:58:40 145.980
FUNcube-1 18 Jan 22:00:02 22:02:13 14° 273° (W) 22:04:25 145.935
BEESAT 3 18 Jan 22:27:17 22:29:22 14° 11° (N) 22:31:28 437.485
DX 1 18 Jan 22:32:33 22:34:56 15° 55° (NE) 22:37:20 434.975-435.025
SPROUT 18 Jan 22:36:01 22:39:02 19° 59° (ENE) 22:42:04 437.525
UKube-1 18 Jan 22:36:09 22:37:51 12° 53° (NE) 22:39:34 .
CUBEBUG 1 18 Jan 22:43:18 22:47:27 42° 67° (ENE) 22:51:37 437.445
HUMSAT D 18 Jan 22:47:54 22:51:02 21° 269° (W) 22:54:13 437.325/437.525
50 SAT 18 Jan 22:48:59 22:51:43 21° 63° (ENE) 22:54:29 437.505
UNISAT 6 18 Jan 22:50:56 22:55:20 72° 103° (ESE) 22:59:49 437.425
AISAT 18 Jan 22:54:54 22:59:02 38° 66° (ENE) 23:03:09 437.250
YUBILEINY 18 Jan 22:56:29 23:00:53 14° 39° (NE) 23:05:17 435.215
PRISM 18 Jan 23:01:21 23:05:05 33° 295° (WNW) 23:08:47 437.425
ISS 18 Jan 23:02:18 23:03:24 11° 138° (SE) 23:04:30 145.825
TIGRISAT 18 Jan 23:04:53 23:09:18 90° 194° (SSW) 23:13:46 435.000
QB50P1 18 Jan 23:06:30 23:08:36 13° 88° (E) 23:10:42 145.935-145.965
BEESAT 2 18 Jan 23:07:58 23:10:13 14° 13° (NNE) 23:12:29 435.950
AIST 2 18 Jan 23:08:02 23:11:22 22° 334° (NNW) 23:14:44 435.215
ESTCUBE 1 18 Jan 23:08:52 23:13:24 75° 256° (WSW) 23:17:59 437.505/2401.250
POLYITAN 1 18 Jan 23:09:50 23:12:13 15° 88° (E) 23:14:37 437.675
QB50P2 18 Jan 23:10:50 23:13:27 16° 89° (E) 23:16:04 145.880/145.840
BY70-1 18 Jan 23:11:36 23:14:16 26° 265° (W) 23:17:05 436.1900
JAS-2 18 Jan 23:14:23 23:21:07 50° 98° (E) 23:28:28 435.910
ANTELSAT 18 Jan 23:19:43 23:24:04 64° 289° (WNW) 23:28:30 437.575/2403.000
RS-15 18 Jan 23:25:21 23:35:39 36° 106° (ESE) 23:46:13 29.354- 29.394
AO-85 18 Jan 23:25:35 23:29:22 44° 236° (SW) 23:33:05 145.980
VELOX 1 18 Jan 23:28:02 23:32:28 72° 73° (ENE) 23:36:55 145.980
POPSAT HIP 1 18 Jan 23:32:17 23:35:40 23° 93° (E) 23:39:02 437.405
GONETS M04 18 Jan 23:34:11 23:39:57 19° 314° (NW) 23:45:46
Cosmos 2499 18 Jan 23:43:28 23:46:27 12° 318° (NW) 23:49:23 435.465 / 435.565
DUCHIFAT 1 18 Jan 23:45:15 23:48:50 26° 94° (E) 23:52:23 145.980
AIST 1 18 Jan 23:47:38 23:48:52 11° 57° (ENE) 23:50:05
NANOSAT C BR1 18 Jan 23:49:43 23:53:29 31° 96° (E) 23:57:15 145.865
BEESAT 3 19 Jan 00:04:36 00:08:10 30° 34° (NE) 00:11:44 437.485
DX 1 19 Jan 00:06:06 00:10:30 88° 76° (ENE) 00:14:54 434.975-435.025
UKube-1 19 Jan 00:08:50 00:13:08 72° 73° (ENE) 00:17:28 .
TISAT 1 19 Jan 00:09:41 00:13:10 26° 63° (ENE) 00:16:41 437.305
SPROUT 19 Jan 00:10:21 00:14:34 61° 258° (WSW) 00:18:49 437.525
CUBEBUG 1 19 Jan 00:20:08 00:23:53 27° 266° (W) 00:27:38 437.445
50 SAT 19 Jan 00:21:22 00:24:44 38° 262° (W) 00:28:09 437.505
BUGSAT 1 19 Jan 00:27:09 00:30:36 26° 95° (E) 00:34:01 437.445
UNISAT 6 19 Jan 00:28:40 00:31:37 18° 302° (WNW) 00:34:35 437.425
AISAT 19 Jan 00:31:41 00:35:35 30° 265° (W) 00:39:30 437.250
ISS 19 Jan 00:36:08 00:39:15 43° 156° (SSE) 00:42:22 145.825
QB50P1 19 Jan 00:40:42 00:44:55 79° 287° (WNW) 00:49:09 145.935-145.965
TIGRISAT 19 Jan 00:42:58 00:45:24 15° 304° (NW) 00:47:51 435.000
POLYITAN 1 19 Jan 00:44:18 00:48:32 73° 286° (WNW) 00:52:44 437.675
BEESAT 2 19 Jan 00:45:26 00:49:09 33° 35° (NE) 00:52:50 435.950
QB50P2 19 Jan 00:45:30 00:49:42 67° 289° (WNW) 00:53:54 145.880/145.840
AIST 2 19 Jan 00:49:04 00:51:17 14° 358° (N) 00:53:31 435.215
ESTCUBE 1 19 Jan 00:49:59 00:51:02 11° 276° (W) 00:52:06 437.505/2401.250
PCSat 19 Jan 00:51:57 00:56:09 23° 109° (ESE) 01:00:22 145.827
YUBILEINY 19 Jan 00:52:09 01:00:37 46° 67° (ENE) 01:08:59 435.215
ANTELSAT 19 Jan 00:58:47 00:59:59 11° 308° (NW) 01:01:11 437.575/2403.000
JAS-2 19 Jan 00:59:42 01:06:07 45° 297° (WNW) 01:13:10 435.910
ITUPSAT 1 19 Jan 01:00:33 01:04:18 23° 59° (ENE) 01:08:04 437.325
VELOX 1 19 Jan 01:06:39 01:09:25 16° 271° (W) 01:12:13 145.980
POPSAT HIP 1 19 Jan 01:07:37 01:11:39 45° 291° (WNW) 01:15:41 437.405
Cosmos 2504 19 Jan 01:17:00 01:23:49 34° 63° (ENE) 01:30:17 435.465 / 435.565
DUCHIFAT 1 19 Jan 01:20:43 01:24:37 38° 293° (WNW) 01:28:31 145.980
AIST 1 19 Jan 01:23:00 01:27:19 75° 78° (ENE) 01:31:34
NANOSAT C BR1 19 Jan 01:25:27 01:29:13 33° 295° (WNW) 01:32:59 145.865
Oscar 19 19 Jan 01:33:17 01:38:05 36° 96° (E) 01:42:50 437.125/150
Gurwin Techsat 1B 19 Jan 01:34:04 01:38:13 23° 90° (E) 01:42:21 435.225
AUBIESAT-1 19 Jan 01:34:40 01:35:59 11° 49° (NE) 01:37:18 437.475
RS-15 19 Jan 01:34:49 01:46:54 87° 311° (NW) 01:59:25 29.354- 29.394
BEESAT 19 Jan 01:35:23 01:39:53 43° 66° (ENE) 01:44:25 436.000
SWISSCUBE 19 Jan 01:36:45 01:41:19 49° 67° (ENE) 01:45:55 437.505
BEESAT 3 19 Jan 01:42:05 01:46:00 52° 235° (SW) 01:49:53 437.485
TISAT 1 19 Jan 01:44:44 01:48:40 40° 262° (W) 01:52:38 437.305
DX 1 19 Jan 01:45:19 01:47:20 13° 273° (W) 01:49:20 434.975-435.025
UKube-1 19 Jan 01:47:03 01:49:40 16° 271° (W) 01:52:18 .
MOZHAYETS 4 19 Jan 01:47:11 01:50:30 20° 58° (ENE) 01:53:52
Cosmos 2491 19 Jan 01:47:49 01:55:34 38° 83° (E) 02:03:20 435.465 / 435.565
BUGSAT 1 19 Jan 02:02:21 02:06:03 36° 293° (WNW) 02:09:45 437.445
ISS 19 Jan 02:12:21 02:15:37 90° 352° (N) 02:18:53 145.825
ITAMSAT 1 19 Jan 02:14:47 02:16:16 11° 84° (E) 02:17:46 435.822/435.867
QB50P1 19 Jan 02:18:13 02:20:01 13° 306° (NW) 02:21:49 145.935-145.965
POLYITAN 1 19 Jan 02:22:04 02:23:35 12° 306° (NW) 02:25:07 437.675
BEESAT 2 19 Jan 02:23:11 02:27:04 46° 236° (SW) 02:30:57 435.950
QB50P2 19 Jan 02:23:35 02:24:43 11° 307° (NW) 02:25:52 145.880/145.840
